AAL192 KDFW-LEBL

Flight info

Callsign AAL192
Flight time N/A
Altitude 33000
Route ZACHH4 BSKAT DCT JEBEP DCT HUMBO DCT TIIDE DCT GVR DCT EMPTY DCT FOXEE DCT JHW DCT SAEZE DCT MPV/N0484F350 DCT EBONY DCT ALLRY/M084F360 NATY XETBO/N0478F370 DCT GIPER/M083F370 DCT TULTA/N0478F370 DCT NENEM DCT BADRU P152 PPN/N0480F380 P152 RONKO M601 MARIO/N0476F370 DCT POSSY DCT GRAUS
Aircraft B77W/H-SDE1E2E3FGHIJ2J3J4J5M1RWXY/LB1D1

Departure

Time N/A
Airport Dallas Fort Worth International Airport (KDFW)

Arrival

Time 2026-05-07 11:44
Airport Josep Tarradellas Barcelona-El Prat Airport (LEBL)
Time Latitude Longitude Altitude Speed Heading
2026-05-07 11:04 42.85005 -1.82703 36959 ft 471 kts 144°
2026-05-07 11:04 42.82448 -1.79941 36960 ft 471 kts 144°
2026-05-07 11:05 42.77303 -1.74384 36972 ft 472 kts 143°
2026-05-07 11:05 42.72860 -1.67775 36975 ft 478 kts 128°
2026-05-07 11:06 42.69641 -1.59839 36977 ft 483 kts 117°
2026-05-07 11:06 42.66837 -1.51532 36944 ft 483 kts 118°
2026-05-07 11:07 42.63950 -1.43297 36967 ft 483 kts 118°
2026-05-07 11:07 42.61046 -1.35055 36965 ft 484 kts 118°
2026-05-07 11:08 42.58106 -1.26809 36957 ft 485 kts 119°
2026-05-07 11:08 42.55163 -1.18596 36961 ft 485 kts 119°
2026-05-07 11:09 42.52224 -1.10403 36952 ft 485 kts 119°
2026-05-07 11:09 42.49254 -1.02141 36963 ft 485 kts 119°
2026-05-07 11:10 42.46299 -0.93930 36962 ft 485 kts 119°
2026-05-07 11:10 42.43342 -0.85724 36964 ft 485 kts 119°
2026-05-07 11:11 42.40378 -0.77505 36964 ft 485 kts 119°
2026-05-07 11:11 42.37440 -0.69356 36963 ft 485 kts 119°
2026-05-07 11:12 42.34466 -0.61120 36959 ft 484 kts 120°
2026-05-07 11:12 42.31512 -0.52994 36981 ft 485 kts 120°
2026-05-07 11:13 42.28500 -0.44779 36907 ft 487 kts 120°
2026-05-07 11:13 42.26996 -0.40691 36163 ft 495 kts 120°
2026-05-07 11:13 42.25453 -0.36493 35472 ft 491 kts 120°
2026-05-07 11:14 42.23960 -0.32432 34682 ft 489 kts 120°
2026-05-07 11:14 42.22428 -0.28269 33883 ft 487 kts 120°
2026-05-07 11:14 42.20937 -0.24228 32954 ft 485 kts 120°
2026-05-07 11:14 42.19434 -0.20159 32392 ft 476 kts 121°
2026-05-07 11:15 42.17966 -0.16185 31871 ft 469 kts 121°
2026-05-07 11:15 42.16521 -0.12281 31320 ft 462 kts 121°
2026-05-07 11:15 42.15096 -0.08437 30825 ft 456 kts 121°
2026-05-07 11:15 42.13689 -0.04650 30320 ft 450 kts 121°
2026-05-07 11:16 42.12297 -0.00905 29773 ft 444 kts 121°
2026-05-07 11:16 42.10920 0.02793 29198 ft 438 kts 121°
2026-05-07 11:16 42.09561 0.06434 28703 ft 431 kts 121°
2026-05-07 11:16 42.08229 0.10008 28207 ft 426 kts 121°
2026-05-07 11:17 42.06902 0.13557 27704 ft 425 kts 121°
2026-05-07 11:17 42.05554 0.17153 27191 ft 432 kts 121°
2026-05-07 11:17 42.04198 0.20774 26684 ft 438 kts 120°
2026-05-07 11:17 42.02830 0.24436 26164 ft 435 kts 120°
2026-05-07 11:18 42.01480 0.28056 25642 ft 429 kts 120°
2026-05-07 11:18 42.00152 0.31605 25233 ft 421 kts 120°
2026-05-07 11:18 41.98834 0.35026 25068 ft 400 kts 125°
2026-05-07 11:18 41.97076 0.37804 24872 ft 381 kts 143°
2026-05-07 11:19 41.94887 0.39672 24597 ft 375 kts 159°
2026-05-07 11:19 41.92428 0.40934 24384 ft 383 kts 162°
2026-05-07 11:19 41.89918 0.42268 24121 ft 390 kts 159°
2026-05-07 11:19 41.87469 0.43834 23835 ft 390 kts 156°
2026-05-07 11:20 41.85067 0.45505 23563 ft 388 kts 155°
2026-05-07 11:20 41.82676 0.47173 23253 ft 386 kts 155°
2026-05-07 11:20 41.80304 0.48787 22965 ft 383 kts 156°
2026-05-07 11:20 41.77918 0.50367 22687 ft 379 kts 156°
2026-05-07 11:21 41.75555 0.51902 22403 ft 376 kts 157°
2026-05-07 11:21 41.73203 0.53412 22149 ft 374 kts 157°
2026-05-07 11:21 41.70885 0.54892 21889 ft 372 kts 157°
2026-05-07 11:21 41.68523 0.56396 21618 ft 371 kts 157°
2026-05-07 11:22 41.66197 0.57876 21351 ft 370 kts 157°
2026-05-07 11:22 41.63867 0.59357 21114 ft 370 kts 157°
2026-05-07 11:22 41.61545 0.60833 20851 ft 369 kts 157°
2026-05-07 11:22 41.59263 0.62283 20586 ft 369 kts 157°
2026-05-07 11:23 41.56945 0.63752 20328 ft 368 kts 157°
2026-05-07 11:23 41.54707 0.65393 20053 ft 370 kts 145°
2026-05-07 11:23 41.52789 0.67681 19809 ft 369 kts 139°
2026-05-07 11:23 41.50945 0.70078 19543 ft 370 kts 138°
2026-05-07 11:24 41.49115 0.72469 19292 ft 370 kts 138°
2026-05-07 11:24 41.47242 0.74898 19032 ft 370 kts 138°
2026-05-07 11:24 41.45414 0.77246 18765 ft 369 kts 139°
2026-05-07 11:24 41.43563 0.79604 18508 ft 368 kts 139°
2026-05-07 11:25 41.41687 0.81980 18227 ft 366 kts 139°
2026-05-07 11:25 41.39866 0.84279 17950 ft 364 kts 139°
2026-05-07 11:25 41.38032 0.86589 17687 ft 362 kts 139°
2026-05-07 11:25 41.36185 0.88913 17416 ft 359 kts 139°
2026-05-07 11:26 41.34396 0.91161 17159 ft 357 kts 139°
2026-05-07 11:26 41.32725 0.93286 16950 ft 354 kts 137°
2026-05-07 11:26 41.31055 0.95681 16714 ft 352 kts 135°
2026-05-07 11:26 41.29353 0.98014 16470 ft 350 kts 138°
2026-05-07 11:27 41.27554 1.00185 16238 ft 348 kts 141°
2026-05-07 11:27 41.25728 1.02295 15989 ft 348 kts 141°
2026-05-07 11:27 41.23912 1.04429 15750 ft 348 kts 141°
2026-05-07 11:27 41.22128 1.06578 15501 ft 349 kts 140°
2026-05-07 11:28 41.20346 1.08763 15244 ft 348 kts 139°
2026-05-07 11:28 41.18577 1.10962 14972 ft 346 kts 139°
2026-05-07 11:28 41.16836 1.13135 14569 ft 344 kts 139°
2026-05-07 11:28 41.15094 1.15304 14130 ft 342 kts 138°
2026-05-07 11:29 41.13424 1.17564 13615 ft 343 kts 132°
2026-05-07 11:29 41.11954 1.20027 13159 ft 341 kts 128°
2026-05-07 11:29 41.10552 1.22553 12747 ft 338 kts 127°
2026-05-07 11:29 41.09171 1.25056 12312 ft 334 kts 127°
2026-05-07 11:30 41.07799 1.27516 11852 ft 332 kts 128°
2026-05-07 11:30 41.06429 1.29940 11407 ft 330 kts 128°
2026-05-07 11:30 41.05067 1.32326 10980 ft 328 kts 128°
2026-05-07 11:30 41.03772 1.34581 10602 ft 325 kts 128°
2026-05-07 11:31 41.02444 1.36885 10254 ft 321 kts 128°
2026-05-07 11:31 41.01239 1.38971 10161 ft 310 kts 128°
2026-05-07 11:31 41.00318 1.40563 10085 ft 301 kts 128°
2026-05-07 11:31 40.99128 1.42617 9764 ft 288 kts 128°
2026-05-07 11:32 40.96904 1.46989 8922 ft 283 kts 110°
2026-05-07 11:32 40.96518 1.49529 8470 ft 283 kts 94°
2026-05-07 11:32 40.96467 1.51760 8174 ft 282 kts 91°
2026-05-07 11:33 40.96464 1.54338 7852 ft 280 kts 90°
2026-05-07 11:33 40.96469 1.56909 7516 ft 279 kts 90°
2026-05-07 11:33 40.96513 1.59460 7154 ft 274 kts 82°
2026-05-07 11:33 40.97177 1.61805 6696 ft 277 kts 54°
2026-05-07 11:34 40.98570 1.63462 6394 ft 274 kts 27°
2026-05-07 11:34 41.00382 1.64086 6089 ft 270 kts
2026-05-07 11:34 41.02226 1.63856 5901 ft 263 kts 352°
2026-05-07 11:34 41.03981 1.63455 5665 ft 250 kts 350°
2026-05-07 11:35 41.05673 1.63037 5455 ft 244 kts 350°
2026-05-07 11:35 41.07321 1.62617 5277 ft 239 kts 350°
2026-05-07 11:35 41.08942 1.62191 5033 ft 236 kts 349°
2026-05-07 11:35 41.10555 1.61762 4750 ft 236 kts 349°
2026-05-07 11:36 41.12163 1.61333 4450 ft 236 kts 349°
2026-05-07 11:36 41.13765 1.60923 4162 ft 232 kts 355°
2026-05-07 11:36 41.15346 1.61226 3705 ft 233 kts 28°
2026-05-07 11:36 41.16529 1.62611 3443 ft 226 kts 59°
2026-05-07 11:37 41.17127 1.64474 3433 ft 215 kts 73°
2026-05-07 11:37 41.17532 1.66336 3416 ft 205 kts 76°
2026-05-07 11:37 41.17912 1.68173 3424 ft 208 kts 75°
2026-05-07 11:37 41.18292 1.70014 3415 ft 204 kts 75°
2026-05-07 11:38 41.18668 1.71814 3413 ft 201 kts 75°
2026-05-07 11:38 41.19046 1.73600 3407 ft 200 kts 75°
2026-05-07 11:38 41.19425 1.75380 3406 ft 202 kts 75°
2026-05-07 11:38 41.19811 1.77187 3406 ft 205 kts 75°
2026-05-07 11:39 41.20199 1.79004 3415 ft 204 kts 75°
2026-05-07 11:39 41.20586 1.80813 3415 ft 204 kts 74°
2026-05-07 11:39 41.20997 1.82618 3407 ft 203 kts 69°
2026-05-07 11:39 41.21589 1.84313 3411 ft 204 kts 65°
2026-05-07 11:40 41.22205 1.86009 3421 ft 204 kts 66°
2026-05-07 11:40 41.22816 1.87755 3191 ft 210 kts 66°
2026-05-07 11:40 41.23423 1.89518 2940 ft 209 kts 66°
2026-05-07 11:40 41.24024 1.91267 2654 ft 208 kts 68°
2026-05-07 11:41 41.24617 1.92997 2379 ft 201 kts 68°
2026-05-07 11:41 41.25167 1.94598 2116 ft 185 kts 68°
2026-05-07 11:41 41.25679 1.96090 1869 ft 169 kts 68°
2026-05-07 11:41 41.26145 1.97451 1648 ft 154 kts 68°
2026-05-07 11:42 41.26569 1.98687 1454 ft 140 kts 69°
2026-05-07 11:42 41.26973 1.99867 1283 ft 141 kts 69°
2026-05-07 11:42 41.27375 2.01043 1074 ft 136 kts 70°
2026-05-07 11:42 41.27754 2.02170 918 ft 134 kts 69°
2026-05-07 11:43 41.28160 2.03320 762 ft 138 kts 68°
2026-05-07 11:43 41.28569 2.04498 548 ft 140 kts 69°
2026-05-07 11:43 41.28835 2.05267 403 ft 134 kts 70°
2026-05-07 11:43 41.29339 2.06758 120 ft 135 kts 69°
2026-05-07 11:44 41.29708 2.07841 25 ft 117 kts 68°
2026-05-07 11:44 41.29985 2.08659 28 ft 72 kts 65°
2026-05-07 11:44 41.30110 2.09042 25 ft 19 kts 73°
2026-05-07 11:44 41.30120 2.09091 25 ft 7 kts 76°
2026-05-07 11:45 41.30128 2.09154 23 ft 11 kts 82°
2026-05-07 11:45 41.30131 2.09264 20 ft 13 kts 93°
2026-05-07 11:45 41.30123 2.09373 20 ft 10 kts 105°
2026-05-07 11:45 41.30072 2.09412 22 ft 10 kts 203°
2026-05-07 11:46 41.30027 2.09333 24 ft 12 kts 245°
2026-05-07 11:46 41.29992 2.09226 24 ft 13 kts 245°
2026-05-07 11:46 41.29952 2.09108 25 ft 15 kts 245°
2026-05-07 11:46 41.29908 2.08978 27 ft 16 kts 245°
2026-05-07 11:47 41.29862 2.08846 27 ft 16 kts 245°
2026-05-07 11:47 41.29811 2.08697 25 ft 19 kts 245°
2026-05-07 11:47 41.29754 2.08531 25 ft 21 kts 246°
2026-05-07 11:47 41.29692 2.08352 25 ft 15 kts 246°
2026-05-07 11:48 41.29686 2.08334 24 ft 1 kts 246°
2026-05-07 11:48 41.29677 2.08306 25 ft 6 kts 246°
2026-05-07 11:48 41.29653 2.08246 26 ft 8 kts 228°
2026-05-07 11:48 41.29592 2.08245 20 ft 11 kts 160°
2026-05-07 11:49 41.29521 2.08285 24 ft 11 kts 156°
2026-05-07 11:49 41.29480 2.08303 23 ft 5 kts 182°
2026-05-07 11:49 41.29462 2.08277 25 ft 3 kts 260°
2026-05-07 11:49 41.29468 2.08238 24 ft 6 kts 283°
2026-05-07 11:50 41.29477 2.08196 23 ft 4 kts 286°
2026-05-07 11:50 41.29481 2.08178 23 ft 0 kts 286°